TimeEDT,TemperatureF,Dew PointF,Humidity,Sea Level PressureIn,VisibilityMPH,Wind Direction,Wind SpeedMPH,Gust SpeedMPH,PrecipitationIn,Events,Conditions,WindDirDegrees,DateUTC
12:54 AM,55.9,33.1,42,30.24,10.0,NE,5.8,-,N/A,,Clear,50,2013-05-27 04:54:00
1:54 AM,55.0,35.1,47,30.25,10.0,ENE,4.6,-,N/A,,Clear,70,2013-05-27 05:54:00
2:54 AM,55.0,34.0,45,30.25,10.0,NNW,3.5,-,N/A,,Clear,330,2013-05-27 06:54:00
3:54 AM,53.1,35.1,50,30.25,10.0,Calm,Calm,-,N/A,,Clear,0,2013-05-27 07:54:00
4:54 AM,52.0,36.0,54,30.25,10.0,Calm,Calm,-,N/A,,Clear,0,2013-05-27 08:54:00
5:54 AM,51.1,42.1,71,30.26,10.0,Calm,Calm,-,N/A,,Partly Cloudy,0,2013-05-27 09:54:00
6:54 AM,53.1,37.0,55,30.27,10.0,Calm,Calm,-,N/A,,Partly Cloudy,0,2013-05-27 10:54:00
7:54 AM,57.9,37.9,47,30.28,10.0,Calm,Calm,-,N/A,,Partly Cloudy,0,2013-05-27 11:54:00
8:54 AM,63.0,30.0,29,30.28,10.0,Calm,Calm,-,N/A,,Partly Cloudy,0,2013-05-27 12:54:00
9:54 AM,64.9,35.1,33,30.27,10.0,Calm,Calm,-,N/A,,Scattered Clouds,0,2013-05-27 13:54:00
10:54 AM,66.0,30.9,27,30.27,10.0,SSW,8.1,-,N/A,,Mostly Cloudy,210,2013-05-27 14:54:00
11:54 AM,70.0,32.0,25,30.26,10.0,SSW,12.7,-,N/A,,Mostly Cloudy,210,2013-05-27 15:54:00
12:54 PM,71.1,32.0,24,30.25,10.0,SW,11.5,-,N/A,,Mostly Cloudy,230,2013-05-27 16:54:00
1:54 PM,72.0,33.1,24,30.22,10.0,WSW,9.2,-,N/A,,Mostly Cloudy,250,2013-05-27 17:54:00
2:54 PM,73.0,33.1,23,30.20,10.0,West,11.5,19.6,N/A,,Mostly Cloudy,260,2013-05-27 18:54:00
3:54 PM,72.0,34.0,25,30.19,10.0,SW,8.1,-,N/A,,Mostly Cloudy,220,2013-05-27 19:54:00
4:54 PM,73.9,35.1,24,30.17,10.0,WSW,12.7,-,N/A,,Mostly Cloudy,240,2013-05-27 20:54:00
5:54 PM,72.0,39.0,30,30.18,10.0,SW,12.7,-,N/A,,Mostly Cloudy,230,2013-05-27 21:54:00
6:54 PM,70.0,39.9,33,30.17,10.0,SW,10.4,-,N/A,,Mostly Cloudy,230,2013-05-27 22:54:00
7:54 PM,69.1,42.1,38,30.18,10.0,SW,10.4,-,N/A,,Mostly Cloudy,230,2013-05-27 23:54:00
8:54 PM,66.9,42.1,40,30.18,10.0,SW,9.2,-,N/A,,Overcast,230,2013-05-28 00:54:00
9:54 PM,64.9,43.0,45,30.19,10.0,SW,8.1,-,N/A,,Overcast,230,2013-05-28 01:54:00
10:54 PM,62.1,46.0,56,30.20,10.0,WSW,5.8,-,N/A,,Overcast,240,2013-05-28 02:54:00
11:54 PM,63.0,46.9,56,30.22,10.0,SW,4.6,-,N/A,,Overcast,230,2013-05-28 03:54:00